Theta_e
320 321 324 325 328 331 333 340 346 348 349 348 350 350 347 349 346 346 336 333 325 326 322 316 313 312 309 308 310 306 305 304 306 311 308 311 311 311 309 310 309 310 307
319 320 322 324 326 330 332 335 342 345 348 347 348 347 346 340 336 327 327 323 322 319 315 314 309 308 306 308 305 305 304 305 306 305 307 305 310 312 311 312 308 306 308
321 319 321 322 324 328 331 334 337 340 344 346 345 332 325 326 325 323 320 320 317 315 314 307 304 302 303 304 305 303 305 304 304 302 302 305 309 309 307 310 310 312 305
318 319 318 321 324 326 330 333 334 338 339 343 333 327 323 320 321 317 316 312 309 306 305 304 303 304 305 305 304 305 307 305 305 303 302 303 304 307 304 301 301 304 305
314 317 320 322 322 325 327 330 332 337 338 340 330 326 327 324 317 311 310 307 305 301 304 304 304 304 306 308 304 306 307 305 302 302 301 302 301 299 299 300 300 301 305
311 314 318 318 320 323 325 329 332 338 339 340 332 330 318 316 306 307 305 305 301 301 300 302 303 302 300 299 299 300 301 305 303 301 300 299 299 297 297 298 299 298 297
311 312 314 316 318 322 324 328 331 329 325 320 319 320 313 308 304 303 305 304 301 300 301 300 298 298 299 298 299 299 298 299 298 303 300 297 297 297 297 298 300 299 299
310 312 313 315 317 320 325 329 323 319 315 312 310 308 306 304 303 301 302 303 301 301 302 301 300 299 302 304 303 300 299 298 299 298 299 299 299 299 299 300 304 304 304
309 312 313 315 316 319 325 321 314 311 309 307 307 305 303 302 302 300 303 302 302 300 302 301 298 300 294 296 301 300 301 300 294 295 296 295 295 294 294 299 297 298 298
310 312 313 316 317 319 321 312 310 308 306 306 304 304 303 302 302 301 302 303 299 297 297 298 296 296 293 294 303 301 299 299 301 302 302 300 297 302 297 303 300 297 298
312 313 314 316 322 315 309 307 305 304 303 302 301 302 301 301 302 299 299 301 296 295 294 294 295 292 292 292 295 300 298 297 299 302 301 300 302 302 300 301 303 301 299
310 313 314 315 309 307 305 303 302 300 299 298 297 295 296 298 298 295 295 295 295 292 292 293 292 291 291 292 294 291 292 294 301 299 299 298 298 298 299 301 305 307 303
309 309 307 306 305 304 300 298 297 298 297 295 294 293 292 293 294 294 293 293 294 294 293 292 291 290 291 292 292 294 297 300 299 297 297 297 298 300 303 304 308 308 308
300 300 299 299 298 299 299 298 297 295 294 293 291 290 291 291 291 292 291 292 293 294 293 295 295 295 295 296 297 298 298 298 298 297 297 298 299 299 298 300 301 302 300
297 296 295 294 293 293 294 295 295 295 294 293 292 291 290 289 291 292 292 296 296 294 297 298 299 299 298 298 298 298 298 298 297 297 297 297 297 297 297 299 301 301 297
293 291 290 290 290 290 289 288 291 291 292 291 291 292 291 290 290 290 291 290 291 291 299 298 297 297 296 296 296 296 297 297 297 297 297 297 296 296 296 297 300 300 296
291 291 291 291 290 290 289 288 285 288 290 289 289 289 289 288 289 289 289 289 288 295 298 297 296 296 296 296 296 296 295 296 298 297 297 296 296 296 296 296 297 298 296
293 293 292 291 291 291 290 290 290 287 286 286 288 287 288 288 288 289 289 293 296 296 297 296 295 296 296 295 296 295 295 296 296 296 296 296 297 296 295 295 295 297 295
294 294 294 293 292 291 291 290 289 288 286 287 288 288 289 288 288 289 292 297 296 295 295 295 296 296 296 296 296 296 296 295 295 295 296 296 296 295 295 295 295 292 294
293 293 293 293 292 291 290 288 288 288 287 287 288 289 291 292 295 296 297 297 296 295 295 295 296 296 296 296 296 296 295 295 295 295 295 296 296 296 294 294 295 295 296
293 293 292 293 292 292 292 292 292 291 289 289 291 293 288 296 296 296 296 295 295 295 296 296 296 296 296 296 296 295 295 294 294 295 295 295 296 295 295 295 295 295 294
294 293 293 293 294 294 294 294 293 293 293 293 294 293 288 297 296 296 295 295 296 296 296 296 295 295 295 295 295 295 294 293 294 294 294 295 296 295 295 294 294 294 294
295 296 297 296 295 293 295 296 296 295 295 296 296 296 296 296 296 296 295 296 296 296 297 296 296 295 295 294 293 292 291 292 294 294 294 294 294 293 294 293 293 293 293
297 296 297 299 298 298 297 297 296 293 296 297 298 297 297 297 297 297 296 296 296 296 296 296 295 294 294 293 292 290 289 289 293 293 295 294 293 292 293 293 293 293 293
299 300 298 299 298 298 297 297 297 298 298 298 298 298 298 298 297 297 297 297 296 296 296 295 294 293 292 291 289 288 284 283 289 285 294 294 293 292 292 292 292 293 293
300 300 299 300 300 299 299 298 298 299 298 298 298 299 298 298 298 298 298 297 296 295 295 294 294 293 291 289 287 283 283 283 286 284 290 293 291 292 292 291 291 292 292
Wind_Speed
15 12 11 9 9 8 11 12 13 12 12 14 15 16 15 18 13 10 13 14 16 15 14 14 14 13 9 9 5 3 4 4 2 2 2 3 3 5 7 8 9 9 7
16 14 12 10 10 10 10 12 11 13 13 13 12 14 13 6 9 16 12 13 16 17 16 16 15 10 10 10 6 6 7 4 1 2 2 4 4 5 6 8 8 9 8
16 14 12 11 11 11 11 10 11 11 13 11 10 6 11 12 14 16 17 15 12 13 13 13 13 13 10 6 7 6 3 4 2 3 3 4 4 5 8 8 8 8 9
19 13 13 12 12 11 11 10 10 11 10 7 11 14 14 11 4 17 13 17 17 13 9 8 11 8 10 8 5 7 5 4 2 1 2 4 6 9 8 10 10 9 9
19 12 12 11 13 13 12 11 10 10 11 11 14 13 12 11 10 14 19 17 16 13 10 10 9 9 8 4 6 8 6 2 1 1 2 5 8 9 10 11 10 10 10
18 16 13 14 14 14 12 11 10 11 6 10 15 15 15 8 15 21 20 18 17 15 10 10 15 15 14 18 18 19 14 5 6 5 6 7 9 9 9 10 10 11 11
20 18 16 16 15 14 13 12 7 11 12 13 13 13 14 15 19 19 24 16 16 22 9 13 11 9 12 12 15 18 15 11 7 7 7 7 6 9 10 11 11 11 11
17 18 17 16 16 14 13 9 12 11 14 13 14 13 16 14 22 20 23 16 17 22 11 10 11 9 8 8 10 12 10 8 7 6 5 4 4 6 9 10 10 11 9
18 18 16 17 15 14 15 13 13 12 12 13 14 17 18 17 21 22 19 17 16 15 14 11 7 12 8 9 11 10 7 5 5 6 4 6 6 9 9 9 10 10 10
16 15 14 15 13 15 12 13 10 12 14 12 15 15 19 18 20 18 14 12 14 16 13 14 14 10 10 9 8 7 8 6 4 5 3 6 8 4 10 7 9 9 9
14 14 13 12 12 14 15 14 15 14 16 15 17 16 17 16 11 5 12 12 11 15 12 10 9 12 16 15 12 7 3 8 3 5 6 8 7 8 8 8 8 8 8
11 9 9 7 13 13 19 14 16 17 18 18 18 15 13 12 12 13 13 13 16 15 12 12 11 12 11 9 8 3 9 10 6 6 8 8 8 8 8 8 7 8 8
7 11 14 15 14 16 18 18 15 16 15 15 14 14 13 11 10 17 14 16 19 14 11 17 17 16 14 9 0 5 8 7 8 8 8 8 8 7 8 8 7 9 9
15 17 17 18 17 15 12 12 13 13 15 15 15 15 15 12 9 8 9 14 23 18 18 12 9 9 10 6 4 7 9 8 8 8 8 8 8 8 9 9 8 10 8
19 17 18 15 18 17 15 11 12 11 11 17 15 15 14 14 6 5 7 10 10 14 12 9 9 9 9 8 10 10 9 9 10 9 9 9 9 9 10 10 9 11 8
20 15 14 14 15 16 19 21 30 26 26 28 28 19 13 17 14 8 11 12 14 9 8 9 9 9 10 10 9 9 10 10 9 9 9 9 9 10 10 10 10 11 8
21 18 16 17 15 16 17 19 22 24 32 28 31 30 20 17 13 8 8 7 4 9 9 9 10 10 10 10 10 10 10 8 9 9 9 9 9 9 9 9 10 11 9
21 27 16 15 15 15 15 17 17 20 16 13 19 22 16 13 12 8 7 10 11 9 10 11 11 10 10 10 10 9 8 8 9 9 9 10 9 9 9 10 10 11 8
18 16 17 16 15 18 16 17 17 18 14 15 14 13 9 6 6 5 9 9 10 12 11 11 11 10 10 9 8 8 9 8 8 9 9 9 9 9 10 10 10 10 9
18 29 23 17 17 16 16 18 16 14 14 14 12 11 9 8 8 9 10 11 11 11 11 11 11 10 9 9 8 8 8 9 9 9 9 9 9 9 9 11 11 11 11
15 16 26 18 16 15 15 16 14 13 14 12 10 9 8 10 11 11 11 11 11 11 11 11 10 10 9 9 9 9 10 9 9 9 9 8 9 9 10 10 10 11 11
17 15 15 15 16 16 15 15 15 13 13 13 12 11 9 11 11 12 12 12 11 11 10 10 10 10 10 10 10 9 9 10 10 9 9 8 8 9 10 11 11 10 11
15 15 16 16 16 18 14 13 13 13 14 14 14 13 13 13 13 13 12 12 11 10 10 10 10 10 10 10 11 11 10 9 8 9 9 9 9 10 10 10 10 11 10
17 18 17 15 15 16 15 15 14 15 15 15 14 13 13 13 13 14 12 11 11 11 11 11 11 14 11 11 10 9 9 8 8 10 12 10 10 11 10 11 10 12 11
17 16 17 15 15 14 15 16 15 15 15 14 14 13 13 13 13 13 12 11 10 10 12 11 10 13 15 15 13 12 9 9 10 10 11 11 12 13 11 10 12 10 12
16 17 15 14 13 14 14 14 15 15 14 14 13 13 13 13 12 11 11 11 11 11 12 10 11 14 13 11 12 9 9 10 12 13 10 10 11 9 9 11 14 9 12
Wind_Direction
263 270 271 268 272 259 265 235 234 247 233 234 233 233 220 212 212 159 120 135 121 125 131 130 127 120 118 115 123 155 130 80 264 62 255 15 329 313 323 330 317 323 338
263 258 263 265 265 260 255 264 229 235 238 234 249 241 234 249 132 122 133 130 130 136 137 138 125 128 115 126 126 119 100 111 266 251 329 301 312 310 323 310 347 321 326
261 252 252 254 256 257 256 253 260 235 235 236 243 123 130 135 138 132 124 122 113 126 143 138 133 124 128 143 139 132 154 114 141 263 314 317 284 29 337 340 333 333 341
268 243 248 248 252 254 253 254 253 249 238 188 128 137 137 127 120 126 120 116 122 115 99 99 94 132 126 139 121 110 105 117 158 254 289 301 17 4 349 346 343 355 337
262 252 244 250 253 254 254 252 251 249 226 161 143 142 132 143 141 129 117 124 112 106 108 124 92 105 84 110 123 91 105 100 48 38 357 16 17 357 353 349 338 348 338
254 248 247 246 246 247 248 248 244 246 127 148 154 150 133 138 138 125 129 120 121 111 114 124 99 100 85 85 77 73 55 44 58 9 38 21 16 359 352 346 352 351 345
266 245 238 239 239 242 243 237 238 126 121 124 127 128 121 121 136 133 133 130 146 107 140 120 116 119 114 111 101 88 70 54 35 31 40 28 2 4 349 343 348 343 324
258 242 236 235 237 235 236 221 125 133 128 125 122 119 118 122 129 126 118 116 106 115 137 115 127 133 120 123 98 89 81 71 52 58 61 38 36 6 3 337 354 327 335
244 239 228 232 227 232 228 131 128 124 119 119 120 125 123 123 129 125 124 117 122 108 99 103 101 111 36 39 98 99 103 133 181 207 232 230 233 260 271 334 1 343 352
236 233 224 225 222 228 125 121 114 115 114 113 113 112 128 116 118 124 128 123 123 103 99 93 65 83 57 30 105 113 101 73 26 106 149 221 219 44 226 348 355 342 4
256 219 213 218 220 106 110 114 114 112 109 105 105 109 110 112 112 93 114 119 121 111 113 113 93 77 66 56 59 69 73 301 158 47 47 35 21 20 23 9 5 339 17
241 230 217 130 113 122 116 112 112 113 112 111 108 96 86 85 72 58 74 89 102 106 117 108 107 87 77 71 81 299 262 255 56 48 42 32 21 21 14 360 4 29 75
193 122 114 109 114 117 116 117 113 113 116 111 108 106 91 74 73 73 79 92 111 111 110 117 131 125 119 99 172 307 50 51 46 42 34 27 23 21 18 5 18 93 68
110 105 105 102 99 97 101 108 113 118 118 113 114 110 98 99 84 74 93 99 105 111 124 127 114 96 88 139 152 75 64 49 40 34 27 21 27 11 31 16 5 42 37
103 100 93 91 94 93 83 87 99 97 107 120 113 107 120 114 109 160 152 131 115 105 116 142 125 118 108 92 71 64 48 46 39 34 26 19 25 12 29 22 5 48 34
99 95 98 98 98 97 95 87 73 82 93 97 90 89 93 97 125 115 114 128 137 169 108 103 101 93 81 73 69 65 51 41 33 33 30 25 17 27 15 26 11 45 24
100 102 99 99 101 104 104 105 102 73 73 79 92 94 92 103 96 130 143 162 107 109 99 98 89 79 75 71 62 53 53 44 33 35 31 25 18 18 18 28 25 42 20
97 99 99 100 101 101 103 105 104 102 103 90 80 102 105 138 148 162 173 105 94 95 90 88 83 80 73 66 57 55 47 36 42 37 31 27 11 20 15 18 29 30 29
102 104 103 102 98 101 103 100 97 98 107 113 122 114 119 105 149 156 103 96 92 88 83 80 77 73 70 64 65 64 52 49 37 39 33 21 13 11 23 13 17 35 30
93 101 102 100 99 99 100 98 104 111 114 114 117 122 135 157 114 97 86 85 85 84 83 80 74 69 63 57 55 55 50 39 38 41 40 19 10 3 19 17 19 24 18
95 94 104 97 102 108 108 106 113 113 108 112 125 134 121 106 96 91 90 85 84 82 78 74 71 67 64 58 54 44 44 41 31 34 37 32 358 14 13 18 14 15 28
96 100 105 109 108 109 109 107 112 118 113 112 110 104 96 92 93 91 88 85 82 78 76 75 70 63 55 45 35 42 43 34 28 20 30 22 15 10 19 13 15 16 27
111 118 109 104 106 116 116 112 113 114 113 116 113 106 99 97 97 93 89 85 82 80 75 72 74 72 65 55 46 34 25 20 9 18 22 17 26 4 18 12 14 12 11
102 109 112 114 112 108 108 111 115 115 110 107 105 106 103 98 94 92 92 89 85 82 77 70 60 57 58 57 52 43 33 10 13 356 7 20 29 10 6 18 6 15 14
104 100 107 113 110 113 121 119 116 111 110 107 107 107 106 102 99 98 95 94 91 88 83 82 76 70 63 57 50 40 14 348 360 346 348 26 21 22 8 16 7 15 19
107 108 113 119 118 114 113 113 111 111 112 111 111 110 107 106 105 105 103 98 93 88 85 80 78 74 74 65 46 19 355 357 355 345 329 27 23 23 8 12 18 10 17